Regional Weather Roundup
Issued by NWS

Home | Current Version | Previous Version | Text Only | Print | Product List | Glossary Off
Versions: 1 2 3 4 5 6 7 8 9 10 11 12 13 14 15 16 17 18 19 20 21 22 23 24 25 26 27 28 29 30 31 32 33 34 35 36 37 38 39 40 41 42 43 44 45 46 47 48 49 50

000
ASUS43 KFSD 182310
RWRSD

WEATHER ROUNDUP FOR SOUTH DAKOTA
NATIONAL WEATHER SERVICE SIOUX FALLS SD
600 PM CDT SAT APR 18 2015

NOTE: "FAIR" INDICATES FEW OR NO CLOUDS BELOW 12,000 FEET WITH NO
SIGNIFICANT WEATHER AND/OR OBSTRUCTIONS TO VISIBILITY.


SDZ001>005-009-010-012>017-190000-
NORTHWEST AND NORTH CENTRAL SOUTH DAKOTA

CITY           SKY/WX    TMP DP  RH WIND       PRES   REMARKS
BUFFALO          N/A     52  40  63 S10       29.85F
FAITH            N/A     48  44  86 N10       29.91R
MOBRIDGE       LGT RAIN  52  44  74 N16       29.89S
$$

SDZ012>016-024>037-041>051-057-063-072>074-190000-
SOUTHWEST AND SOUTH CENTRAL SOUTH DAKOTA

CITY           SKY/WX    TMP DP  RH WIND       PRES   REMARKS
RAPID CTY ARPT CLOUDY    47  45  93 NW10      29.92R
PIERRE         LGT RAIN  50  48  93 NW9       29.86S FOG
CUSTER         CLOUDY    43  38  82 N6        29.91S
ELLSWORTH AFB  LGT RAIN  46  46 100 N13       29.91
PHILIP         CLOUDY    58  38  47 NE6       29.87F
PINE RIDGE     PTSUNNY   52  44  74 NW10      29.89R
SPEARFISH      LGT RAIN  45  41  87 W3        29.95F
WINNER         CLOUDY    60  53  77 N7        29.83S
$$

SDZ004>011-016>023-039-040-190000-
NORTHEAST SOUTH DAKOTA

CITY           SKY/WX    TMP DP  RH WIND       PRES   REMARKS
ABERDEEN       CLOUDY    68  38  33 SW14      29.86F
WATERTOWN      CLOUDY    64  44  48 S13G23    29.86S
BROOKINGS      CLOUDY    61  55  82 SE13      29.87F
SISSETON         N/A     72  26  18 SE12      29.85F
$$

SDZ017-020-022-023-036>040-048>070-190000-
SOUTHEAST SOUTH DAKOTA

CITY           SKY/WX    TMP DP  RH WIND       PRES   REMARKS
SIOUX FALLS    CLOUDY    59  55  87 E7        29.85F
HURON          LGT RAIN  55  54  96 E7        29.85F FOG
CHAMBERLAIN    CLOUDY    55  53  93 NE5       29.84F
MITCHELL       CLOUDY    59  56  89 SE6       29.84F
YANKTON        CLOUDY    63  55  77 E10       29.81F
$$

ABBREVIATIONS USED IN REMARKS
   TC - TEMPERATURE IN CELSIUS
  WCI - WIND CHILL INDEX
   HX - HEAT INDEX
  VSB - VISIBILITY




USA.gov is the U.S. government's official web portal to all federal, state and local government web resources and services.